User: anonymous   Login
Location: Newark
(44.1667°N, 8.2500°E)
Time: 01:43:11
(UTC+00:00)
Language:

Transit 2A Rocket - Orbit

View from above orbital plane
View from above orbital plane
View from above satellite
View from above satellite

Ground track
Ground track

The orbit data is extracted from the following two-line orbital elements,

1    47U 60007C   19346.19658719 -.00000037  00000-0  16811-4 0  9995
2    47  66.6663 298.3714 0220381  80.7029 281.8923 14.42062443107980
Epoch (UTC): 12 December 2019 04:43:05
Eccentricity: 0.0220381
inclination: 66.6663°
perigee height: 594 km
apogee height: 909 km
right ascension of ascending node: 298.3714°
argument of perigee: 80.7029°
revolutions per day: 14.42062443
mean anomaly at epoch: 281.8923°
orbit number at epoch: 10798

The dashed part of the orbit path shows where the satellite is in the earth's shadow,  

DLR